Location: Unspecified
(0.0000°N, 0.0000°E)
Time: 13:39:08
(UTC+00:00)

Vanguard 2 Rocket - Pass Details

Date: 21 November 2019
Orbit: 554 x 3326 km, 32.9° (Epoch: 08 December)

Event Time Altitude Azimuth Distance (km) Brightness Sun altitude
Rises 14:18:10 0° 234° (SW) 7,314 12.2 47.7°
Reaches altitude 10° 14:26:50 10° 215° (SW) 6,198 12.0 45.8°
Maximum altitude 14:37:07 16° 182° (S) 5,247 11.3 43.6°
Drops below altitude 10° 14:45:47 10° 149° (SSE) 5,153 10.8 41.7°
Sets 14:51:43 0° 128° (SE) 5,609 10.7 40.4°
